| time (UTC) | temp F | wind direction | speed knots | gust knots | rain 1hr in | rain 24hr in | rain mn in | humidity % | barometer mb |
| 20260507081831 | 50 | 194 | 5.2 | 10.4 | 0.00 | 0.18 | 0.02 | 90 | 1011.5 |
| 20260507081332 | 50 | 224 | 4.3 | 10.4 | 0.00 | 0.18 | 0.02 | 90 | 1011.5 |
| 20260507080831 | 49 | 254 | 4.3 | 8.7 | 0.00 | 0.18 | 0.02 | 91 | 1011.5 |
| 20260507080331 | 49 | 266 | 4.3 | 8.7 | 0.00 | 0.18 | 0.02 | 91 | 1011.5 |
| 20260507080212 | 49 | 220 | 3.5 | 8.7 | 0.00 | 0.18 | 0.02 | 92 | 1011.4 |
| 20260507075858 | 49 | 234 | 3.5 | 8.7 | 0.00 | 0.18 | 0.02 | 92 | 1011.3 |
| 20260507074948 | 49 | 216 | 3.5 | 7.0 | 0.00 | 0.18 | 0.02 | 92 | 1011.3 |
| 20260507074854 | 49 | 222 | 3.5 | 7.0 | 0.00 | 0.18 | 0.02 | 92 | 1011.3 |
| 20260507073828 | 49 | 219 | 4.3 | 8.7 | 0.00 | 0.18 | 0.02 | 92 | 1011.2 |
| 20260507073328 | 49 | 217 | 3.5 | 8.7 | 0.00 | 0.18 | 0.02 | 92 | 1011.2 |
| 20260507072824 | 49 | 227 | 2.6 | 7.0 | 0.00 | 0.18 | 0.02 | 92 | 1011.2 |
| 20260507072325 | 49 | 210 | 2.6 | 7.0 | 0.00 | 0.18 | 0.02 | 92 | 1011.2 |
| 20260507071823 | 49 | 215 | 3.5 | 7.8 | 0.00 | 0.18 | 0.02 | 92 | 1011.1 |
| 20260507071325 | 49 | 223 | 4.3 | 7.8 | 0.00 | 0.18 | 0.02 | 92 | 1011.1 |
| 20260507070824 | 48 | 210 | 4.3 | 7.8 | 0.00 | 0.18 | 0.02 | 92 | 1011.1 |
| 20260507070323 | 48 | 217 | 3.5 | 7.8 | 0.00 | 0.18 | 0.02 | 92 | 1011.1 |
| 20260507065826 | 48 | 217 | 3.5 | 7.8 | 0.00 | 0.18 | 0.02 | 92 | 1011.0 |
| 20260507065322 | 48 | 217 | 2.6 | 6.1 | 0.00 | 0.18 | 0.02 | 92 | 1011.0 |
| 20260507065032 | 48 | 215 | 4.3 | 8.7 | 0.00 | 0.18 | 0.02 | 91 | 1011.0 |
| 20260507064901 | 48 | 217 | 3.5 | 7.8 | 0.00 | 0.18 | 0.02 | 92 | 1011.0 |
| 20260507063824 | 48 | 241 | 4.3 | 8.7 | 0.00 | 0.18 | 0.02 | 91 | 1010.9 |
| 20260507063320 | 48 | 224 | 3.5 | 7.8 | 0.00 | 0.18 | 0.02 | 91 | 1010.9 |
| 20260507062825 | 49 | 215 | 3.5 | 7.8 | 0.00 | 0.18 | 0.02 | 91 | 1010.8 |
| 20260507062326 | 49 | 215 | 3.5 | 7.8 | 0.00 | 0.18 | 0.02 | 90 | 1010.8 |
| 20260507061816 | 49 | 209 | 4.3 | 8.7 | 0.00 | 0.18 | 0.02 | 90 | 1010.7 |
| 20260507061316 | 49 | 222 | 4.3 | 8.7 | 0.00 | 0.18 | 0.02 | 90 | 1010.7 |
| 20260507061256 | 49 | 216 | 3.5 | 10.4 | 0.00 | 0.18 | 0.02 | 91 | 1010.4 |
| 20260507060925 | 49 | 223 | 4.3 | 9.6 | 0.00 | 0.18 | 0.02 | 91 | 1010.6 |
| 20260507060335 | 49 | 205 | 5.2 | 10.4 | 0.00 | 0.18 | 0.02 | 91 | 1010.6 |
| 20260507055943 | 49 | 213 | 4.3 | 10.4 | 0.00 | 0.18 | 0.02 | 91 | 1010.5 |
| 20260507054312 | 48 | 217 | 3.5 | 7.8 | 0.00 | 0.18 | 0.02 | 92 | 1010.4 |
| 20260507053813 | 48 | 202 | 3.5 | 7.8 | 0.00 | 0.18 | 0.02 | 92 | 1010.2 |
| 20260507053307 | 48 | 217 | 3.5 | 7.8 | 0.00 | 0.18 | 0.02 | 92 | 1010.2 |
| 20260507052806 | 48 | 227 | 3.5 | 7.8 | 0.00 | 0.18 | 0.02 | 92 | 1010.2 |
| 20260507052307 | 48 | 252 | 3.5 | 7.8 | 0.01 | 0.18 | 0.02 | 92 | 1010.3 |
| 20260507051809 | 47 | 218 | 3.5 | 8.7 | 0.01 | 0.18 | 0.02 | 92 | 1010.2 |
| 20260507051308 | 48 | 223 | 2.6 | 8.7 | 0.01 | 0.18 | 0.02 | 92 | 1010.3 |
| 20260507050811 | 48 | 216 | 3.5 | 7.0 | 0.01 | 0.18 | 0.02 | 92 | 1010.2 |
| 20260507050308 | 47 | 264 | 4.3 | 8.7 | 0.01 | 0.18 | 0.02 | 92 | 1010.1 |
| 20260507045805 | 47 | 216 | 3.5 | 8.7 | 0.01 | 0.18 | 0.02 | 91 | 1010.2 |
| 20260507045306 | 47 | 222 | 2.6 | 7.0 | 0.01 | 0.18 | 0.02 | 92 | 1010.1 |
| 20260507044805 | 48 | 291 | 3.5 | 7.8 | 0.01 | 0.18 | 0.02 | 92 | 1010.1 |
| 20260507044306 | 48 | 217 | 3.5 | 8.7 | 0.01 | 0.18 | 0.02 | 92 | 1010.1 |
| 20260507043807 | 48 | 234 | 2.6 | 8.7 | 0.01 | 0.18 | 0.02 | 91 | 1010.1 |
| 20260507043411 | 48 | 241 | 3.5 | 7.8 | 0.01 | 0.18 | 0.02 | 91 | 1009.9 |
| 20260507043322 | 48 | 195 | 3.5 | 7.8 | 0.01 | 0.18 | 0.02 | 91 | 1010.0 |
| 20260507042306 | 48 | 217 | 4.3 | 7.8 | 0.00 | 0.17 | 0.01 | 91 | 1009.9 |
| 20260507041804 | 48 | 216 | 4.3 | 8.7 | 0.00 | 0.17 | 0.01 | 91 | 1009.9 |
| 20260507041304 | 48 | 269 | 4.3 | 8.7 | 0.00 | 0.17 | 0.01 | 91 | 1009.8 |
| 20260507040801 | 48 | 240 | 3.5 | 7.8 | 0.00 | 0.17 | 0.01 | 92 | 1009.8 |
| 20260507040302 | 48 | 230 | 3.5 | 7.8 | 0.00 | 0.17 | 0.01 | 92 | 1009.7 |
| 20260507035804 | 48 | 215 | 3.5 | 6.1 | 0.00 | 0.17 | 0.01 | 92 | 1009.7 |
| 20260507035300 | 48 | 234 | 3.5 | 6.1 | 0.00 | 0.17 | 0.01 | 92 | 1009.6 |
| 20260507034909 | 49 | 216 | 2.6 | 7.0 | 0.00 | 0.18 | 0.01 | 91 | 1009.5 |
| 20260507034827 | 48 | 217 | 2.6 | 7.0 | 0.00 | 0.17 | 0.01 | 91 | 1009.7 |
| 20260507033803 | 48 | 217 | 1.7 | 5.2 | 0.00 | 0.18 | 0.01 | 91 | 1009.5 |
| 20260507033259 | 49 | 242 | 2.6 | 7.8 | 0.00 | 0.18 | 0.01 | 91 | 1009.5 |
| 20260507032801 | 49 | 217 | 3.5 | 7.8 | 0.00 | 0.18 | 0.01 | 91 | 1009.4 |
| 20260507032301 | 49 | 246 | 3.5 | 8.7 | 0.00 | 0.18 | 0.01 | 91 | 1009.4 |
| 20260507032031 | 49 | 234 | 2.6 | 7.0 | 0.00 | 0.18 | 0.01 | 91 | 1009.4 |
| 20260507031833 | 49 | 233 | 3.5 | 8.7 | 0.00 | 0.18 | 0.01 | 91 | 1009.4 |
| 20260507030759 | 49 | 217 | 1.7 | 6.1 | 0.00 | 0.18 | 0.01 | 92 | 1009.4 |
| 20260507030302 | 49 | 245 | 2.6 | 5.2 | 0.00 | 0.18 | 0.01 | 92 | 1009.3 |
| 20260507025803 | 49 | 255 | 2.6 | 6.1 | 0.00 | 0.18 | 0.01 | 92 | 1009.3 |
| 20260507025343 | 50 | 243 | 2.6 | 5.2 | 0.00 | 0.18 | 0.01 | 92 | 1009.2 |
| 20260507025326 | 50 | 260 | 2.6 | 6.1 | 0.00 | 0.18 | 0.01 | 92 | 1009.1 |
| 20260507025306 | 49 | 269 | 3.5 | 7.8 | 0.00 | 0.18 | 0.01 | 92 | 1009.3 |
| 20260507025253 | 50 | 217 | 1.7 | 5.2 | 0.00 | 0.18 | 0.01 | 92 | 1009.1 |
| 20260507024924 | 50 | 247 | 2.6 | 7.8 | 0.00 | 0.18 | 0.01 | 92 | 1009.2 |
| 20260507024044 | 50 | 263 | 3.5 | 6.1 | 0.00 | 0.18 | 0.01 | 92 | 1009.2 |
| 20260507022848 | 50 | 234 | 1.7 | 5.2 | 0.00 | 0.18 | 0.01 | 92 | 1009.2 |
| 20260507021225 | 50 | 234 | 2.6 | 7.0 | 0.00 | 0.18 | 0.01 | 92 | 1009.1 |
| 20260507020722 | 50 | 217 | 2.6 | 7.0 | 0.00 | 0.18 | 0.01 | 92 | 1009.1 |
| 20260507020221 | 50 | 205 | 2.6 | 7.0 | 0.00 | 0.18 | 0.01 | 92 | 1009.0 |
| 20260507015717 | 50 | 217 | 1.7 | 7.0 | 0.00 | 0.18 | 0.01 | 92 | 1009.0 |
| 20260507015215 | 50 | 217 | 2.6 | 7.8 | 0.00 | 0.18 | 0.01 | 92 | 1009.0 |
| 20260507014910 | 50 | 217 | 1.7 | 5.2 | 0.00 | 0.18 | 0.01 | 92 | 1009.0 |
| 20260507014744 | 50 | 217 | 2.6 | 7.8 | 0.00 | 0.18 | 0.01 | 92 | 1009.0 |
| 20260507013711 | 50 | 218 | 2.6 | 6.1 | 0.00 | 0.18 | 0.01 | 92 | 1009.0 |
| 20260507013208 | 50 | 217 | 2.6 | 6.1 | 0.00 | 0.18 | 0.01 | 92 | 1009.0 |
| 20260507012711 | 50 | 252 | 2.6 | 7.0 | 0.00 | 0.18 | 0.01 | 92 | 1008.9 |
| 20260507012204 | 50 | 216 | 2.6 | 7.0 | 0.00 | 0.18 | 0.01 | 92 | 1009.0 |
| 20260507011705 | 50 | 227 | 3.5 | 7.0 | 0.00 | 0.18 | 0.01 | 92 | 1008.9 |
| 20260507011204 | 50 | 256 | 3.5 | 7.8 | 0.00 | 0.18 | 0.01 | 92 | 1008.9 |
| 20260507010713 | 50 | 234 | 3.5 | 7.8 | 0.00 | 0.18 | 0.01 | 92 | 1008.8 |
| 20260507010630 | 51 | 203 | 2.6 | 7.0 | 0.00 | 0.18 | 0.01 | 93 | 1008.9 |
| 20260507010306 | 51 | 211 | 3.5 | 7.8 | 0.00 | 0.18 | 0.01 | 92 | 1008.9 |
| 20260507005208 | 51 | 222 | 2.6 | 7.0 | 0.00 | 0.18 | 0.01 | 92 | 1008.9 |
| 20260507004702 | 51 | 216 | 2.6 | 6.1 | 0.00 | 0.18 | 0.01 | 92 | 1008.8 |
| 20260507004201 | 51 | 216 | 2.6 | 7.0 | 0.00 | 0.18 | 0.01 | 92 | 1008.8 |
| 20260507003705 | 51 | 236 | 2.6 | 7.0 | 0.00 | 0.18 | 0.01 | 92 | 1008.8 |
| 20260507002650 | 51 | 238 | 1.7 | 4.3 | 0.01 | 0.18 | 0.01 | 92 | 1008.8 |
| 20260507001651 | 51 | 218 | 2.6 | 6.1 | 0.01 | 0.18 | 0.01 | 92 | 1008.8 |
| 20260507000646 | 51 | 217 | 2.6 | 6.1 | 0.01 | 0.18 | 0.01 | 92 | 1008.9 |
| 20260507000149 | 51 | 242 | 1.7 | 5.2 | 0.01 | 0.18 | 0.01 | 92 | 1008.9 |
| 20260506235641 | 51 | 217 | 1.7 | 5.2 | 0.01 | 0.18 | 0.01 | 92 | 1008.8 |
| 20260506235317 | 51 | 220 | 3.5 | 6.1 | 0.01 | 0.18 | 0.01 | 92 | 1008.8 |
| 20260506235203 | 51 | 216 | 2.6 | 6.1 | 0.01 | 0.18 | 0.01 | 92 | 1008.9 |
| 20260506234138 | 51 | 250 | 4.3 | 8.7 | 0.01 | 0.18 | 0.01 | 92 | 1008.9 |
| 20260506233830 | 51 | 217 | 2.6 | 6.1 | 0.00 | 0.17 | 0.00 | 92 | 1008.7 |
| 20260506233708 | 51 | 217 | 4.3 | 8.7 | 0.01 | 0.18 | 0.01 | 92 | 1008.8 |
| 20260506233207 | 51 | 253 | 2.6 | 7.8 | 0.00 | 0.17 | 0.00 | 92 | 1008.7 |
| 20260506231637 | 51 | 241 | 2.6 | 7.0 | 0.00 | 0.17 | 0.00 | 92 | 1008.7 |
| 20260506231134 | 51 | 222 | 1.7 | 6.1 | 0.00 | 0.17 | 0.00 | 92 | 1008.6 |
| 20260506230132 | 51 | 215 | 1.7 | 4.3 | 0.00 | 0.17 | 0.00 | 92 | 1008.6 |
| 20260506225728 | 51 | 217 | 1.7 | 5.2 | 0.00 | 0.17 | 0.00 | 92 | 1008.4 |
| 20260506225648 | 51 | 210 | 1.7 | 5.2 | 0.00 | 0.17 | 0.00 | 92 | 1008.5 |
| 20260506224630 | 51 | 240 | 1.7 | 5.2 | 0.00 | 0.17 | 0.00 | 92 | 1008.4 |
| 20260506224123 | 52 | 247 | 0.9 | 4.3 | 0.00 | 0.17 | 0.00 | 92 | 1008.4 |
| 20260506223615 | 52 | 217 | 0.9 | 3.5 | 0.01 | 0.17 | 0.00 | 92 | 1008.3 |
| 20260506223114 | 52 | 222 | 1.7 | 5.2 | 0.01 | 0.17 | 0.00 | 92 | 1008.3 |
| 20260506222604 | 51 | 249 | 2.6 | 6.1 | 0.01 | 0.17 | 0.00 | 92 | 1008.2 |
| 20260506222059 | 52 | 285 | 2.6 | 6.1 | 0.01 | 0.17 | 0.00 | 92 | 1008.2 |
| 20260506221556 | 52 | 280 | 1.7 | 5.2 | 0.01 | 0.17 | 0.00 | 92 | 1008.2 |
| 20260506221047 | 52 | 216 | 1.7 | 4.3 | 0.02 | 0.17 | 0.00 | 92 | 1008.2 |
| 20260506220546 | 52 | 215 | 0.9 | 3.5 | 0.03 | 0.17 | 0.00 | 92 | 1008.3 |
| 20260506220040 | 52 | 232 | 0.9 | 3.5 | 0.05 | 0.17 | 0.00 | 92 | 1008.1 |
| 20260506215617 | 52 | 239 | 1.7 | 4.3 | 0.09 | 0.17 | 0.17 | 92 | 1008.2 |
| 20260506215544 | 52 | 264 | 0.9 | 3.5 | 0.07 | 0.17 | 0.17 | 92 | 1008.2 |
| 20260506214532 | 52 | 247 | 1.7 | 4.3 | 0.10 | 0.17 | 0.17 | 92 | 1008.2 |
| 20260506214032 | 52 | 253 | 2.6 | 4.3 | 0.12 | 0.17 | 0.17 | 92 | 1008.2 |
| 20260506213532 | 52 | 251 | 2.6 | 5.2 | 0.12 | 0.17 | 0.17 | 92 | 1008.2 |
| 20260506213036 | 52 | 265 | 2.6 | 5.2 | 0.12 | 0.17 | 0.17 | 92 | 1008.2 |
| 20260506212037 | 52 | 257 | 2.6 | 6.1 | 0.13 | 0.17 | 0.17 | 92 | 1008.3 |
| 20260506211532 | 52 | 234 | 2.6 | 6.1 | 0.13 | 0.17 | 0.16 | 92 | 1008.3 |
| 20260506211033 | 52 | 249 | 3.5 | 6.1 | 0.13 | 0.15 | 0.15 | 91 | 1008.2 |
| 20260506210538 | 52 | 231 | 3.5 | 6.1 | 0.12 | 0.14 | 0.13 | 91 | 1008.3 |
| 20260506210039 | 52 | 241 | 2.6 | 7.8 | 0.10 | 0.13 | 0.12 | 91 | 1008.3 |
| 20260506205657 | 53 | 217 | 3.5 | 8.7 | 0.06 | 0.09 | 0.08 | 91 | 1008.3 |
| 20260506205555 | 53 | 217 | 3.5 | 7.8 | 0.08 | 0.10 | 0.10 | 91 | 1008.3 |
| 20260506204652 | 53 | 216 | 3.5 | 8.7 | 0.04 | 0.06 | 0.06 | 90 | 1008.3 |
| 20260506204118 | 53 | 212 | 2.6 | 7.8 | 0.03 | 0.06 | 0.06 | 90 | 1008.2 |
| 20260506203021 | 53 | 225 | 0.9 | 3.5 | 0.02 | 0.05 | 0.05 | 90 | 1008.2 |
| 20260506202524 | 53 | 241 | 0.9 | 2.6 | 0.02 | 0.04 | 0.04 | 90 | 1008.1 |
| 20260506202020 | 53 | 241 | 0.9 | 3.5 | 0.02 | 0.04 | 0.03 | 89 | 1008.1 |
| 20260506201524 | 53 | 236 | 0.9 | 3.5 | 0.01 | 0.03 | 0.03 | 89 | 1008.0 |
| 20260506201019 | 53 | 219 | 1.7 | 4.3 | 0.00 | 0.02 | 0.02 | 89 | 1008.1 |
| 20260506200036 | 53 | 217 | 1.7 | 4.3 | 0.00 | 0.02 | 0.02 | 89 | 1008.0 |
| 20260506195025 | 53 | 241 | 2.6 | 5.2 | 0.00 | 0.02 | 0.02 | 89 | 1007.8 |
| 20260506194527 | 53 | 215 | 1.7 | 4.3 | 0.00 | 0.02 | 0.02 | 89 | 1007.8 |
| 20260506194217 | 53 | 285 | 0.0 | 1.7 | 0.00 | 0.02 | 0.02 | 89 | 1007.5 |
| 20260506194210 | 53 | 285 | 0.9 | 3.5 | 0.00 | 0.02 | 0.02 | 89 | 1007.4 |
| 20260506194047 | 53 | 217 | 0.0 | 3.5 | 0.00 | 0.02 | 0.02 | 89 | 1007.6 |
| 20260506192519 | 53 | 285 | 0.9 | 3.5 | 0.00 | 0.02 | 0.02 | 90 | 1007.4 |
| 20260506192004 | 53 | 296 | 0.9 | 3.5 | 0.00 | 0.02 | 0.02 | 89 | 1007.3 |
| 20260506191517 | 53 | 319 | 0.9 | 2.6 | 0.00 | 0.02 | 0.02 | 90 | 1007.1 |
| 20260506191006 | 53 | 319 | 0.0 | 1.7 | 0.00 | 0.02 | 0.02 | 89 | 1007.2 |
| 20260506190506 | 53 | 319 | 0.9 | 3.5 | 0.00 | 0.02 | 0.02 | 90 | 1006.9 |
| 20260506185952 | 53 | 319 | 0.9 | 3.5 | 0.00 | 0.02 | 0.02 | 89 | 1007.0 |
| 20260506185446 | 53 | 265 | 0.0 | 0.0 | 0.00 | 0.02 | 0.02 | 88 | 1007.0 |
| 20260506184939 | 54 | 226 | 0.0 | 1.7 | 0.01 | 0.02 | 0.02 | 88 | 1007.0 |
| 20260506184438 | 54 | 226 | 1.7 | 4.3 | 0.01 | 0.02 | 0.02 | 88 | 1006.8 |
| 20260506183921 | 54 | 295 | 0.9 | 4.3 | 0.01 | 0.02 | 0.02 | 89 | 1006.8 |
| 20260506183419 | 54 | 305 | 0.9 | 2.6 | 0.01 | 0.02 | 0.02 | 89 | 1006.7 |
| 20260506182911 | 54 | 305 | 0.9 | 2.6 | 0.01 | 0.03 | 0.02 | 90 | 1006.7 |
| 20260506182406 | 54 | 316 | 0.9 | 2.6 | 0.02 | 0.03 | 0.02 | 90 | 1006.7 |
| 20260506181902 | 53 | 320 | 0.9 | 3.5 | 0.02 | 0.03 | 0.02 | 90 | 1006.6 |
| 20260506181639 | 54 | 320 | 0.9 | 2.6 | 0.02 | 0.06 | 0.02 | 89 | 1006.5 |
| 20260506181426 | 53 | 327 | 0.9 | 3.5 | 0.02 | 0.04 | 0.02 | 89 | 1006.5 |
| 20260506180401 | 54 | 320 | 0.0 | 2.6 | 0.02 | 0.06 | 0.02 | 89 | 1006.6 |
| 20260506174355 | 55 | 305 | 0.0 | 1.7 | 0.01 | 0.24 | 0.02 | 87 | 1006.7 |
| 20260506173857 | 55 | 265 | 0.0 | 1.7 | 0.01 | 0.32 | 0.02 | 86 | 1006.7 |
| 20260506173356 | 56 | 262 | 0.0 | 1.7 | 0.01 | 0.35 | 0.02 | 83 | 1006.7 |
| 20260506172850 | 56 | 260 | 0.9 | 3.5 | 0.01 | 0.35 | 0.01 | 82 | 1006.7 |
| 20260506172351 | 57 | 259 | 1.7 | 4.3 | 0.00 | 0.35 | 0.01 | 81 | 1006.7 |
| 20260506171855 | 57 | 278 | 2.6 | 4.3 | 0.00 | 0.35 | 0.01 | 81 | 1006.6 |
| 20260506171400 | 57 | 277 | 2.6 | 6.1 | 0.00 | 0.35 | 0.01 | 80 | 1006.5 |
| 20260506170852 | 57 | 295 | 1.7 | 6.1 | 0.00 | 0.35 | 0.01 | 79 | 1006.4 |
| 20260506170353 | 58 | 295 | 1.7 | 5.2 | 0.00 | 0.35 | 0.01 | 79 | 1006.3 |
| 20260506165849 | 58 | 319 | 1.7 | 7.0 | 0.00 | 0.35 | 0.01 | 77 | 1006.3 |
| 20260506163844 | 60 | 302 | 1.7 | 3.5 | 0.00 | 0.35 | 0.01 | 71 | 1006.3 |
| 20260506162951 | 60 | 322 | 1.7 | 4.3 | 0.00 | 0.35 | 0.01 | 70 | 1006.3 |
| 20260506161836 | 60 | 306 | 1.7 | 4.3 | 0.00 | 0.35 | 0.01 | 69 | 1006.3 |
| 20260506161337 | 61 | 293 | 1.7 | 4.3 | 0.00 | 0.35 | 0.01 | 68 | 1006.3 |
| 20260506160843 | 61 | 326 | 0.9 | 3.5 | 0.00 | 0.35 | 0.01 | 68 | 1006.3 |
| 20260506160739 | 61 | 352 | 0.0 | 1.7 | 0.00 | 0.35 | 0.01 | 68 | 1006.3 |
| 20260506160428 | 61 | 329 | 0.0 | 3.5 | 0.00 | 0.35 | 0.01 | 68 | 1006.4 |
| 20260506155336 | 61 | 350 | 0.0 | 1.7 | 0.00 | 0.35 | 0.01 | 69 | 1006.4 |
| 20260506154836 | 61 | 350 | 0.0 | 2.6 | 0.00 | 0.35 | 0.01 | 69 | 1006.5 |
| 20260506154334 | 61 | 350 | 0.9 | 3.5 | 0.00 | 0.35 | 0.01 | 68 | 1006.5 |
| 20260506153831 | 61 | 350 | 0.9 | 3.5 | 0.00 | 0.35 | 0.01 | 67 | 1006.5 |
| 20260506153332 | 61 | 327 | 0.9 | 3.5 | 0.00 | 0.35 | 0.01 | 69 | 1006.5 |
| 20260506152833 | 61 | 14 | 1.7 | 4.3 | 0.00 | 0.35 | 0.01 | 68 | 1006.4 |
| 20260506150828 | 62 | 284 | 0.9 | 3.5 | 0.00 | 0.35 | 0.01 | 64 | 1006.4 |
| 20260506150321 | 62 | 216 | 0.9 | 1.7 | 0.00 | 0.35 | 0.01 | 63 | 1006.4 |
| 20260506145815 | 62 | 215 | 0.9 | 2.6 | 0.00 | 0.35 | 0.01 | 62 | 1006.5 |
| 20260506145311 | 62 | 248 | 0.9 | 4.3 | 0.00 | 0.35 | 0.01 | 64 | 1006.5 |
| 20260506144809 | 62 | 269 | 0.9 | 4.3 | 0.00 | 0.35 | 0.01 | 64 | 1006.5 |
| 20260506144311 | 62 | 307 | 1.7 | 4.3 | 0.00 | 0.35 | 0.01 | 65 | 1006.5 |
| 20260506143808 | 62 | 222 | 1.7 | 4.3 | 0.00 | 0.35 | 0.01 | 65 | 1006.6 |
| 20260506143312 | 62 | 215 | 0.9 | 4.3 | 0.00 | 0.35 | 0.01 | 62 | 1006.6 |
| 20260506142808 | 62 | 246 | 0.9 | 3.5 | 0.00 | 0.35 | 0.01 | 63 | 1006.6 |
| 20260506142307 | 62 | 217 | 0.9 | 2.6 | 0.00 | 0.35 | 0.01 | 62 | 1006.5 |
| 20260506141805 | 62 | 243 | 1.7 | 4.3 | 0.00 | 0.35 | 0.01 | 65 | 1006.5 |
| 20260506141312 | 63 | 241 | 2.6 | 5.2 | 0.00 | 0.35 | 0.01 | 62 | 1006.6 |
| 20260506141222 | 62 | 217 | 1.7 | 5.2 | 0.00 | 0.35 | 0.01 | 62 | 1006.7 |
| 20260506140920 | 62 | 213 | 1.7 | 5.2 | 0.00 | 0.35 | 0.01 | 61 | 1006.6 |
| 20260506140358 | 62 | 215 | 1.7 | 5.2 | 0.00 | 0.35 | 0.01 | 62 | 1006.7 |
| 20260506134808 | 62 | 167 | 1.7 | 4.3 | 0.00 | 0.35 | 0.01 | 62 | 1006.7 |
| 20260506134305 | 62 | 215 | 0.9 | 4.3 | 0.00 | 0.35 | 0.01 | 62 | 1006.8 |
| 20260506133806 | 61 | 217 | 1.7 | 6.1 | 0.00 | 0.35 | 0.01 | 63 | 1006.9 |
| 20260506133308 | 61 | 210 | 2.6 | 6.1 | 0.00 | 0.35 | 0.01 | 62 | 1006.9 |
| 20260506133037 | 61 | 217 | 3.5 | 7.0 | 0.00 | 0.35 | 0.01 | 62 | 1007.1 |
| 20260506132854 | 61 | 173 | 3.5 | 7.0 | 0.00 | 0.35 | 0.01 | 62 | 1006.9 |
| 20260506131934 | 61 | 251 | 2.6 | 6.1 | 0.00 | 0.35 | 0.01 | 62 | 1007.1 |
| 20260506130810 | 61 | 287 | 2.6 | 5.2 | 0.00 | 0.35 | 0.01 | 62 | 1007.2 |
| 20260506130620 | 61 | 216 | 4.3 | 7.8 | 0.00 | 0.35 | 0.01 | 61 | 1007.2 |
| 20260506130403 | 61 | 217 | 3.5 | 7.8 | 0.00 | 0.35 | 0.01 | 61 | 1007.2 |
| 20260506125306 | 61 | 182 | 2.6 | 7.8 | 0.00 | 0.35 | 0.01 | 61 | 1007.3 |
| 20260506124804 | 62 | 219 | 2.6 | 7.0 | 0.00 | 0.35 | 0.01 | 62 | 1007.3 |
| 20260506124434 | 61 | 218 | 1.7 | 5.2 | 0.00 | 0.35 | 0.01 | 63 | 1007.1 |
| 20260506124428 | 61 | 167 | 2.6 | 7.8 | 0.00 | 0.35 | 0.01 | 61 | 1007.1 |
| 20260506124335 | 62 | 158 | 2.6 | 5.2 | 0.00 | 0.35 | 0.01 | 62 | 1007.2 |
| 20260506122802 | 61 | 153 | 3.5 | 7.8 | 0.00 | 0.35 | 0.01 | 63 | 1007.1 |
| 20260506122305 | 62 | 217 | 3.5 | 7.0 | 0.00 | 0.35 | 0.01 | 63 | 1007.3 |
| 20260506121932 | 62 | 215 | 2.6 | 7.0 | 0.00 | 0.35 | 0.01 | 66 | 1007.3 |
| 20260506121836 | 62 | 242 | 3.5 | 7.0 | 0.00 | 0.35 | 0.01 | 62 | 1007.3 |
| 20260506120804 | 61 | 216 | 1.7 | 7.0 | 0.00 | 0.35 | 0.01 | 65 | 1007.4 |
| 20260506120303 | 60 | 217 | 1.7 | 5.2 | 0.00 | 0.35 | 0.01 | 70 | 1007.4 |
| 20260506115802 | 60 | 215 | 3.5 | 7.8 | 0.00 | 0.35 | 0.01 | 69 | 1007.4 |
| 20260506115420 | 61 | 212 | 3.5 | 7.8 | 0.00 | 0.35 | 0.01 | 68 | 1007.5 |
| 20260506114836 | 61 | 217 | 2.6 | 7.0 | 0.00 | 0.35 | 0.01 | 67 | 1007.6 |
| 20260506113808 | 60 | 196 | 4.3 | 8.7 | 0.00 | 0.35 | 0.01 | 71 | 1007.6 |
| 20260506113305 | 60 | 140 | 2.6 | 6.1 | 0.00 | 0.35 | 0.01 | 70 | 1007.7 |
| 20260506112802 | 60 | 215 | 3.5 | 6.1 | 0.00 | 0.35 | 0.01 | 72 | 1007.7 |
| 20260506112301 | 60 | 248 | 3.5 | 6.1 | 0.00 | 0.35 | 0.01 | 72 | 1007.7 |
| 20260506111801 | 60 | 273 | 3.5 | 7.0 | 0.00 | 0.35 | 0.01 | 71 | 1007.7 |
| 20260506111258 | 60 | 215 | 3.5 | 7.0 | 0.00 | 0.35 | 0.01 | 71 | 1007.7 |
| 20260506110754 | 60 | 205 | 2.6 | 6.1 | 0.00 | 0.35 | 0.01 | 71 | 1007.7 |
| 20260506110255 | 60 | 175 | 2.6 | 9.6 | 0.00 | 0.35 | 0.01 | 72 | 1007.7 |
| 20260506105751 | 59 | 179 | 3.5 | 9.6 | 0.00 | 0.35 | 0.01 | 71 | 1007.7 |
| 20260506105253 | 59 | 151 | 3.5 | 7.8 | 0.00 | 0.35 | 0.01 | 72 | 1007.7 |
| 20260506104748 | 59 | 190 | 2.6 | 6.1 | 0.00 | 0.35 | 0.01 | 72 | 1007.7 |
| 20260506104248 | 59 | 204 | 3.5 | 7.8 | 0.00 | 0.35 | 0.01 | 72 | 1007.8 |
| 20260506103749 | 59 | 189 | 3.5 | 7.8 | 0.00 | 0.35 | 0.01 | 74 | 1007.8 |
| 20260506103551 | 59 | 245 | 2.6 | 7.0 | 0.00 | 0.35 | 0.01 | 74 | 1007.9 |
| 20260506103328 | 59 | 197 | 2.6 | 7.0 | 0.00 | 0.35 | 0.01 | 74 | 1007.9 |
| 20260506102247 | 58 | 215 | 3.5 | 7.0 | 0.00 | 0.35 | 0.01 | 75 | 1007.9 |
| 20260506101749 | 58 | 176 | 2.6 | 7.0 | 0.00 | 0.35 | 0.01 | 76 | 1007.8 |
| 20260506101249 | 58 | 153 | 1.7 | 5.2 | 0.00 | 0.35 | 0.01 | 77 | 1007.9 |
| 20260506100744 | 58 | 217 | 1.7 | 6.1 | 0.00 | 0.35 | 0.01 | 75 | 1007.8 |
| 20260506100247 | 58 | 217 | 2.6 | 6.1 | 0.00 | 0.35 | 0.01 | 77 | 1007.8 |
| 20260506095742 | 58 | 213 | 2.6 | 7.0 | 0.00 | 0.35 | 0.01 | 75 | 1007.9 |
| 20260506095352 | 57 | 214 | 3.5 | 8.7 | 0.00 | 0.35 | 0.01 | 75 | 1007.8 |
| 20260506095306 | 57 | 172 | 2.6 | 7.0 | 0.00 | 0.35 | 0.01 | 76 | 1007.9 |
| 20260506094243 | 58 | 189 | 4.3 | 8.7 | 0.00 | 0.35 | 0.01 | 75 | 1007.8 |
| 20260506093744 | 58 | 205 | 4.3 | 8.7 | 0.00 | 0.35 | 0.01 | 74 | 1007.8 |
| 20260506093623 | 58 | 215 | 2.6 | 7.0 | 0.00 | 0.35 | 0.01 | 74 | 1007.7 |
| 20260506093336 | 58 | 225 | 3.5 | 8.7 | 0.00 | 0.35 | 0.01 | 74 | 1007.7 |
| 20260506092243 | 58 | 272 | 1.7 | 6.1 | 0.00 | 0.35 | 0.01 | 76 | 1007.7 |
| 20260506091742 | 57 | 200 | 1.7 | 5.2 | 0.00 | 0.35 | 0.01 | 77 | 1007.8 |
| 20260506090735 | 57 | 216 | 2.6 | 5.2 | 0.00 | 0.35 | 0.01 | 77 | 1007.8 |
| 20260506090235 | 56 | 212 | 1.7 | 3.5 | 0.00 | 0.35 | 0.01 | 79 | 1007.7 |
| 20260506085733 | 56 | 217 | 0.9 | 3.5 | 0.00 | 0.35 | 0.01 | 79 | 1007.8 |
| 20260506085232 | 56 | 215 | 0.9 | 3.5 | 0.00 | 0.35 | 0.01 | 79 | 1007.7 |
| 20260506084735 | 56 | 212 | 1.7 | 3.5 | 0.00 | 0.35 | 0.01 | 80 | 1007.8 |
| 20260506084232 | 56 | 148 | 1.7 | 4.3 | 0.00 | 0.35 | 0.01 | 81 | 1007.8 |
| 20260506083726 | 55 | 217 | 2.6 | 6.1 | 0.00 | 0.35 | 0.01 | 80 | 1007.8 |
| 20260506083218 | 55 | 216 | 2.6 | 6.1 | 0.00 | 0.35 | 0.01 | 82 | 1007.8 |
| 20260506082714 | 55 | 190 | 1.7 | 5.2 | 0.00 | 0.35 | 0.01 | 81 | 1007.8 |
| 20260506082214 | 55 | 215 | 2.6 | 6.1 | 0.00 | 0.35 | 0.01 | 82 | 1007.8 |